Home > Weather > Labrador City > Past weeks

Flag for Canada Weather for the Past 2 Weeks in Labrador City, Newfoundland and Labrador, Canada

Now
-20 °F

Clear.


Feels Like: -43 °F
Forecast: -29 / -6 °F
Wind: 12 mph from Northwest

Location: Wabush Lake

Current Time: Feb 13, 2016 at 9:01:26 PM

Latest Report: Feb 13, 2016 at 8:00 PM


Visibility: 15 mi

Pressure: 29.95 "Hg (27.70 "Hg at 558m altitude)

Humidity: 56%

Dew point: -31 °F

Location of Labrador CityLocation

Historic Weather in Labrador City — Graph

°F

Labrador City Temperature Yesterday

Maximum temperature yesterday: -13 °F (at 12:00 AM)
Minimum temperature yesterday: -24 °F (at 8:00 AM)
Average temperature yesterday: -19 °F

High & Low Weather Summary for the Past Weeks

 TemperatureHumidityPressure
High27 °F (Jan 31, 9:00 PM)93% (Jan 31, 11:00 AM)30.51 "Hg (Jan 31, 11:00 AM)
Low-31 °F (Feb 8, 8:00 AM)51% (Feb 13, 1:00 PM)29.34 "Hg (Feb 1, 2:00 PM)
Average-5 °F75%29.88 "Hg
* Reported Jan 29 7:00 PM — Feb 13 7:00 PM, Labrador City, Weather by CustomWeather, © 2016

Note: Actual official high and low records may vary slightly from our data, if they occured in-between our weather recording intervals... More about our weather records

Advertising

Labrador City Weather History for the Previous 24 Hours

 ConditionsComfort  
Time TempWeatherWind HumidityBarometerVisibility
7:00 PM
Sat, Feb 13
-20 °FClear.17 mph62%29.95 "Hg15 mi
6:00 PM-18 °FSunny.12 mph56%29.94 "Hg15 mi
5:00 PM-15 °FSunny.9 mph52%29.94 "Hg15 mi
4:00 PM-15 °FSunny.17 mph57%29.92 "Hg15 mi
3:00 PM-15 °FSunny.13 mph57%29.92 "Hg15 mi
2:00 PM-17 °FSunny.12 mph57%29.94 "Hg15 mi
1:00 PM-17 °FSunny.17 mph51%29.96 "Hg15 mi
12:00 PM-18 °FSunny.12 mph56%29.97 "Hg15 mi
11:00 AM-22 °FSunny.12 mph62%29.97 "Hg15 mi
10:00 AM-24 °FSunny.9 mph55%29.98 "Hg15 mi
9:00 AM-27 °FSunny.9 mph61%29.99 "Hg15 mi
8:00 AM-29 °FClear.8 mph67%29.99 "Hg15 mi
7:00 AM-29 °FClear.9 mph67%29.98 "Hg15 mi
6:00 AM-29 °FClear.10 mph67%29.97 "Hg15 mi
5:00 AM-29 °FClear.10 mph67%29.95 "Hg9 mi
4:00 AM-27 °FClear.8 mph67%29.95 "Hg9 mi
3:00 AM-26 °FPassing clouds.9 mph67%29.93 "Hg9 mi
2:00 AM-26 °FClear.10 mph67%29.91 "Hg9 mi
1:00 AM-26 °FExtremely cold.8 mph67%29.92 "Hg9 mi
11:00 PM
Fri, Feb 12
-24 °FClear.7 mph68%29.91 "Hg9 mi
10:00 PM-22 °FClear.9 mph62%29.90 "Hg15 mi
9:00 PM-20 °FClear.8 mph62%29.90 "Hg15 mi
Weather by CustomWeather, © 2016

See weather overviewHow to use our weather pages